Zurück zum Katalog

USPWSA-DRAGOON

AktivWissenschaftSSO
NORAD 64542·PAYLOAD·🇺🇸 United States

Gestartet Jun 23, 2025 von Vandenberg Space Force Base

Loading…

Nächste Überflüge (nächste 24 Stunden)

TLE

AktuellSource: Space-Track

Epoche: Sep 14, 2026, 06:11 UTC

1 64542U 25135Q   26257.25776640  .00007532  00000-0  28414-3 0  9995
2 64542  97.4783  13.4842 0002192 191.3372 168.7818 15.27331462 68516

Verfolge USPWSA-DRAGOON in Echtzeit mit AllMySat

Download on the App Store